Intelsat IS-37e

operational
NORAD ID: 42950 Int'l Des: 2017-059 Owner: INTELU Country: US
HEOCIRCULARGSOGEO

About Intelsat IS-37e

Description loading...

Live Position

Loading 3D Globe...

Upcoming Passes

Altitude History

Altitude vs Time

uPlot chart will show altitude changes over time

Two-Line Element Set

1 42950U 17059A 26063.15340767 .00000000 00000-0 00000+0 0 9991
2 42950 0.0264 149.1962 0002175 198.1831 211.7709 1.00269268 31018
Epoch: Mar 4, 2026 • Age: 22 hours

Current Status

Altitude 35793.1 km
Velocity 3.07 km/s
Sub-Earth Point -0.03°S, 17.96°W
Launch Date Sep 29, 2017
Age 8.4 years
Type communications

Technical Details

Classification Payload
Mass 6538.00 kg
Dry Mass 2950.00 kg
Total Mass 6538.00 kg
Length 7.90 m
Diameter 3.20 m
Span 44.00 m
Shape Box + 2 panels
Manufacturer BOES
Bus Type BSS-702MP
Phase Status In Orbit
Owner/State INTELU/US

Large Constellations

Loading constellations...